KQ4WWD Weather Reports


time (UTC)temp
F
wind
direction
speed
knots
gust
knots
rain 1hr
in
rain 24hr
in
rain mn
in
humidity
%
barometer
mb
20260510193827 91 266 4.3 7.8 0.00 0.00 0.00 59 1014.5
20260510193322 91 287 7.0 7.8 0.00 0.00 0.00 59 1014.8
20260510192818 91 247 7.8 12.2 0.00 0.00 0.00 58 1014.7
20260510192313 91 270 4.3 5.2 0.00 0.00 0.00 56 1014.8
20260510191810 91 307 5.2 7.8 0.00 0.00 0.00 56 1014.7
20260510191305 92 228 4.3 6.1 0.00 0.00 0.00 55 1014.8
20260510190804 91 252 3.5 5.2 0.00 0.00 0.00 56 1014.6
20260510190301 92 222 4.3 5.2 0.00 0.00 0.00 56 1014.7
20260510185757 91 276 7.8 9.6 0.00 0.00 0.00 55 1014.6
20260510185255 92 277 5.2 7.0 0.00 0.00 0.00 56 1014.5
20260510184752 92 261 7.0 7.8 0.00 0.00 0.00 56 1014.6
20260510184248 92 317 6.1 8.7 0.00 0.00 0.00 56 1014.9
20260510183743 92 280 6.1 7.8 0.00 0.00 0.00 58 1014.7
20260510183238 91 253 7.8 11.3 0.00 0.00 0.00 58 1014.9
20260510182735 92 328 9.6 11.3 0.00 0.00 0.00 56 1014.8
20260510182230 91 299 4.3 7.0 0.00 0.00 0.00 59 1014.8
20260510181727 92 32 7.8 9.6 0.00 0.00 0.00 58 1014.6
20260510181225 92 254 5.2 7.0 0.00 0.00 0.00 57 1014.7
20260510180720 93 274 4.3 5.2 0.00 0.00 0.00 55 1014.6
20260510180218 91 294 3.5 4.3 0.00 0.00 0.00 56 1014.6
20260510175714 91 341 3.5 6.1 0.00 0.00 0.00 57 1014.6
20260510175210 92 270 4.3 6.1 0.00 0.00 0.00 58 1014.7
20260510174707 93 231 2.6 2.6 0.00 0.00 0.00 59 1014.9
20260510174205 93 277 2.6 4.3 0.00 0.00 0.00 59 1015.0
20260510173700 93 263 3.5 4.3 0.00 0.00 0.00 59 1015.1
20260510173157 92 257 4.3 6.1 0.00 0.00 0.00 58 1015.0
20260510172652 93 213 7.0 8.7 0.00 0.00 0.00 59 1014.9
20260510172149 92 206 6.1 7.0 0.00 0.00 0.00 61 1015.1
20260510171645 91 319 1.7 2.6 0.00 0.00 0.00 62 1015.2
20260510171143 90 207 1.7 2.6 0.00 0.00 0.00 64 1015.4
20260510170639 91 237 6.1 7.0 0.00 0.00 0.00 65 1015.4
20260510170136 90 265 2.6 2.6 0.00 0.00 0.00 64 1015.6
20260510165631 89 246 1.7 1.7 0.00 0.00 0.00 66 1015.6
20260510165127 91 284 4.3 5.2 0.00 0.00 0.00 64 1015.9
20260510164625 93 195 4.3 6.1 0.00 0.00 0.00 61 1015.7
20260510164122 91 192 1.7 2.6 0.00 0.00 0.00 63 1015.8
20260510163617 89 200 0.9 0.9 0.00 0.00 0.00 67 1016.0
20260510163114 90 226 0.0 0.9 0.00 0.00 0.00 66 1016.1
20260510162608 91 285 4.3 5.2 0.00 0.00 0.00 65 1015.9
20260510162105 90 333 0.0 0.0 0.00 0.00 0.00 65 1016.2
20260510161600 90 183 2.6 4.3 0.00 0.00 0.00 64 1016.1
20260510161058 89 231 3.5 4.3 0.00 0.00 0.00 67 1016.3
20260510160555 88 214 4.3 6.1 0.00 0.00 0.00 67 1016.2
20260510160054 88 281 4.3 5.2 0.00 0.00 0.00 67 1016.3
20260510155551 88 264 2.6 2.6 0.00 0.00 0.00 68 1016.2
20260510155048 87 280 0.0 0.9 0.00 0.00 0.00 70 1016.3
20260510154543 88 252 3.5 5.2 0.00 0.00 0.00 70 1016.4
20260510154038 89 274 4.3 6.1 0.00 0.00 0.00 70 1016.1
20260510153533 88 202 0.9 0.9 0.00 0.00 0.00 70 1016.1
20260510153031 87 207 3.5 4.3 0.00 0.00 0.00 72 1016.4
20260510152528 88 297 2.6 2.6 0.00 0.00 0.00 71 1016.1
20260510152024 87 155 0.0 0.0 0.00 0.00 0.00 71 1016.0
20260510151521 86 236 0.9 1.7 0.00 0.00 0.00 73 1016.1
20260510151018 86 242 1.7 1.7 0.00 0.00 0.00 72 1016.0
20260510150513 86 238 4.3 5.2 0.00 0.00 0.00 72 1016.5
20260510150010 86 227 6.1 7.8 0.00 0.00 0.00 72 1016.5
20260510145506 86 295 0.9 1.7 0.00 0.00 0.00 74 1016.3
20260510145002 85 264 0.0 0.9 0.00 0.00 0.00 73 1016.0
20260510144459 86 212 2.6 2.6 0.00 0.00 0.00 73 1016.1
20260510143955 86 220 4.3 6.1 0.00 0.00 0.00 72 1015.9
20260510143451 85 233 4.3 5.2 0.00 0.00 0.00 74 1016.0
20260510142948 86 234 0.9 1.7 0.00 0.00 0.00 72 1016.0
20260510142445 86 227 3.5 5.2 0.00 0.00 0.00 71 1016.2
20260510141941 86 216 0.9 1.7 0.00 0.00 0.00 72 1015.9
20260510141438 85 217 3.5 4.3 0.00 0.00 0.00 74 1015.9
20260510140935 85 225 2.6 6.1 0.00 0.00 0.00 74 1015.8
20260510140431 84 128 1.7 2.6 0.00 0.00 0.00 74 1016.0
20260510135930 84 246 0.9 1.7 0.00 0.00 0.00 76 1016.0
20260510135426 84 246 4.3 7.0 0.00 0.00 0.00 76 1016.1
20260510134924 84 258 2.6 2.6 0.00 0.00 0.00 76 1015.8
20260510134420 83 310 1.7 2.6 0.00 0.00 0.00 78 1015.6
20260510133917 83 225 0.0 0.0 0.00 0.00 0.00 78 1015.9
20260510133413 83 209 2.6 6.1 0.00 0.00 0.00 77 1015.9
20260510132908 82 225 3.5 6.1 0.00 0.00 0.00 79 1015.7
20260510132407 82 204 0.0 0.0 0.00 0.00 0.00 79 1015.5
20260510131903 81 229 0.9 2.6 0.00 0.00 0.00 82 1015.7
20260510131401 81 162 0.0 0.9 0.00 0.00 0.00 83 1015.8
20260510130857 80 233 2.6 2.6 0.00 0.00 0.00 84 1016.0
20260510130354 79 243 0.9 0.9 0.00 0.00 0.00 85 1015.7
20260510125851 79 196 0.0 0.9 0.00 0.00 0.00 86 1015.8
20260510125347 78 166 0.9 0.9 0.00 0.00 0.00 87 1015.8
20260510124844 78 222 0.0 0.0 0.00 0.00 0.00 87 1015.9
20260510124341 78 191 0.0 0.0 0.00 0.00 0.00 87 1015.6
20260510123837 77 30 0.0 0.0 0.00 0.00 0.00 88 1015.5
20260510123332 77 234 1.7 1.7 0.00 0.00 0.00 88 1015.8
20260510122829 77 194 0.9 1.7 0.00 0.00 0.00 88 1015.6
20260510122325 77 213 0.0 0.9 0.00 0.00 0.00 88 1015.6
20260510121821 77 213 0.9 0.9 0.00 0.00 0.00 88 1015.3
20260510121319 76 237 0.0 0.9 0.00 0.00 0.00 89 1015.3
20260510120816 75 187 0.0 0.0 0.00 0.00 0.00 90 1015.3
20260510120313 75 237 0.0 0.0 0.00 0.00 0.00 89 1015.4
20260510115808 75 225 0.0 0.0 0.00 0.00 0.00 90 1015.2
20260510115307 75 232 0.0 0.0 0.00 0.00 0.00 90 1015.2
20260510114802 74 147 0.0 0.0 0.00 0.00 0.00 91 1015.0
20260510114259 74 234 0.0 0.0 0.00 0.00 0.00 91 1015.0
20260510113759 74 215 0.0 0.0 0.00 0.00 0.00 91 1014.9
20260510113257 74 227 0.0 0.0 0.00 0.00 0.00 91 1014.7
20260510112753 74 251 0.0 0.0 0.00 0.00 0.00 92 1014.5
20260510112250 74 254 0.0 0.0 0.00 0.00 0.00 92 1014.5
20260510111746 73 227 0.0 0.0 0.00 0.00 0.00 92 1014.5
20260510111243 73 196 0.0 0.0 0.00 0.00 0.00 92 1014.1
20260510110742 73 196 0.0 0.0 0.00 0.00 0.00 92 1014.0
20260510110241 73 197 0.0 0.0 0.00 0.00 0.00 92 1013.8
20260510105740 73 198 0.0 0.0 0.00 0.00 0.00 92 1014.0
20260510105235 73 198 0.0 0.0 0.00 0.00 0.00 92 1014.0
20260510104732 73 198 0.0 0.0 0.00 0.00 0.00 92 1013.7
20260510104230 74 201 0.0 0.0 0.00 0.00 0.00 92 1013.9
20260510103726 74 299 0.0 0.0 0.00 0.00 0.00 92 1013.8
20260510103223 74 260 0.0 0.0 0.00 0.00 0.00 92 1014.0
20260510102723 74 214 0.0 0.0 0.00 0.00 0.00 92 1013.8
20260510102218 73 189 0.0 0.0 0.00 0.00 0.00 92 1013.9
20260510101716 73 191 0.0 0.0 0.00 0.00 0.00 92 1013.5
20260510101215 73 235 0.9 0.9 0.00 0.00 0.00 92 1013.5
20260510100710 74 181 2.6 2.6 0.00 0.00 0.00 92 1013.5
20260510100209 74 180 1.7 2.6 0.00 0.00 0.00 92 1013.2
20260510095704 74 176 0.0 0.9 0.00 0.00 0.00 92 1013.1
20260510095159 74 184 2.6 4.3 0.00 0.00 0.00 92 1013.2
20260510094657 73 194 0.9 0.9 0.00 0.00 0.00 92 1013.2
20260510094154 74 200 0.0 0.0 0.00 0.00 0.00 92 1013.4
20260510093650 74 178 0.0 0.9 0.00 0.00 0.00 92 1013.1
20260510093147 74 173 1.7 2.6 0.00 0.00 0.00 92 1013.2
20260510092643 74 182 0.9 0.9 0.00 0.00 0.00 92 1013.0
20260510092139 74 212 0.9 1.7 0.00 0.00 0.00 92 1013.0
20260510091635 74 173 1.7 1.7 0.00 0.00 0.00 91 1013.1
20260510091131 74 219 0.0 0.0 0.00 0.00 0.00 91 1013.2
20260510090628 74 206 1.7 2.6 0.00 0.00 0.00 92 1012.9
20260510090125 74 173 1.7 1.7 0.00 0.00 0.00 92 1013.0
20260510085620 73 166 1.7 1.7 0.00 0.00 0.00 92 1013.0
20260510085115 73 163 2.6 4.3 0.00 0.00 0.00 92 1012.7
20260510084612 73 177 1.7 2.6 0.00 0.00 0.00 92 1012.9
20260510084109 73 168 2.6 2.6 0.00 0.00 0.00 92 1012.4
20260510083605 73 173 0.9 4.3 0.00 0.00 0.00 92 1012.6
20260510083101 73 161 3.5 4.3 0.00 0.00 0.00 92 1012.7
20260510082558 73 164 3.5 4.3 0.00 0.00 0.00 92 1012.3
20260510082054 74 149 0.9 0.9 0.00 0.00 0.00 92 1012.7
20260510081549 74 175 1.7 1.7 0.00 0.00 0.00 92 1012.7
20260510081045 74 174 0.0 0.0 0.00 0.00 0.00 92 1013.0
20260510080544 74 175 0.0 0.9 0.00 0.00 0.00 92 1012.7
20260510080041 74 200 1.7 2.6 0.00 0.00 0.00 92 1012.7
20260510075538 74 204 2.6 4.3 0.00 0.00 0.00 91 1012.7
20260510075035 74 199 0.9 1.7 0.00 0.00 0.00 91 1012.7
20260510074533 74 121 2.6 4.3 0.00 0.00 0.00 91 1012.6
20260510074028 74 188 0.9 1.7 0.00 0.00 0.00 91 1013.0
20260510073524 74 167 1.7 1.7 0.00 0.00 0.00 91 1012.7
20260510073021 74 114 0.9 1.7 0.00 0.00 0.00 91 1013.0
20260510072518 74 168 1.7 1.7 0.00 0.00 0.00 91 1013.0
20260510072014 74 173 3.5 5.2 0.00 0.00 0.00 91 1013.2
20260510071510 74 155 0.9 1.7 0.00 0.00 0.00 91 1012.9
20260510071009 74 197 2.6 2.6 0.00 0.00 0.00 91 1013.0
20260510070505 74 177 0.0 0.0 0.00 0.00 0.00 91 1012.9
20260510070001 74 192 0.0 0.0 0.00 0.00 0.00 91 1013.0
20260510065458 74 187 1.7 1.7 0.00 0.00 0.00 91 1012.9
20260510064954 74 174 1.7 1.7 0.00 0.00 0.00 91 1013.0
20260510064451 74 162 0.9 2.6 0.00 0.00 0.00 92 1013.3
20260510063948 74 153 0.0 0.0 0.00 0.00 0.00 92 1013.0
20260510063444 74 145 0.9 0.9 0.00 0.00 0.00 92 1013.1
20260510062942 74 152 0.9 0.9 0.00 0.00 0.00 92 1013.5
20260510062442 74 178 0.0 0.0 0.00 0.00 0.00 92 1013.5
20260510061938 74 229 0.0 0.0 0.00 0.00 0.00 92 1013.8
20260510061435 74 151 0.0 0.0 0.00 0.00 0.00 92 1013.7
20260510060931 74 170 0.0 0.0 0.00 0.00 0.00 92 1013.8
20260510060428 74 161 0.0 0.0 0.00 0.00 0.00 91 1013.7
20260510055924 74 164 0.9 1.7 0.00 0.00 0.00 91 1013.6
20260510055420 74 148 0.0 0.0 0.00 0.00 0.00 91 1013.9
20260510054919 75 174 0.0 0.9 0.00 0.00 0.00 91 1014.1
20260510054414 74 177 0.0 0.0 0.00 0.00 0.00 91 1014.0
20260510053909 74 136 0.0 0.0 0.00 0.00 0.00 91 1014.2
20260510053405 74 140 0.0 0.0 0.00 0.00 0.00 91 1014.1
20260510052901 74 142 0.0 0.0 0.00 0.00 0.00 91 1014.4
20260510052357 74 142 0.0 0.0 0.00 0.00 0.00 91 1014.3
20260510051854 75 114 0.0 0.0 0.00 0.00 0.00 90 1014.4
20260510051350 75 155 0.0 0.0 0.00 0.00 0.00 90 1014.3
20260510050847 75 170 0.0 0.0 0.00 0.00 0.00 90 1014.4
20260510050344 75 141 0.0 0.0 0.00 0.00 0.00 90 1014.4
20260510045841 75 150 0.0 0.0 0.00 0.00 0.00 90 1014.5
20260510045337 75 153 0.0 0.9 0.00 0.00 0.00 90 1014.5
20260510044835 75 139 0.0 0.0 0.00 0.00 0.00 89 1014.4
20260510044331 75 163 0.0 0.0 0.00 0.00 0.00 89 1014.5
20260510043828 75 166 0.0 0.0 0.00 0.00 0.00 89 1014.6
20260510043324 75 216 0.0 0.0 0.00 0.00 0.00 89 1014.8
20260510042822 75 158 0.0 0.0 0.00 0.00 0.00 89 1014.9
20260510042317 75 155 0.0 0.0 0.00 0.00 0.00 88 1014.6
20260510041814 75 156 0.9 0.9 0.00 0.00 0.00 89 1014.9
20260510041311 75 164 0.0 0.0 0.00 0.00 0.00 89 1014.7
20260510040808 75 136 0.0 0.0 0.00 0.00 0.00 89 1014.5
20260510040305 75 134 0.0 0.0 0.00 0.00 0.00 89 1014.7
20260510035800 75 135 0.0 0.0 0.00 0.00 0.00 89 1014.7
20260510035256 75 307 0.0 0.0 0.00 0.00 0.00 89 1014.8
20260510034752 75 307 0.0 0.0 0.00 0.00 0.00 89 1014.6
20260510034250 75 307 0.0 0.0 0.00 0.00 0.00 89 1014.6
20260510033746 76 307 0.0 0.0 0.00 0.00 0.00 88 1015.0
20260510033244 76 307 0.0 0.0 0.00 0.00 0.00 87 1014.7
20260510032740 76 298 0.0 0.0 0.00 0.00 0.00 86 1015.1
20260510032236 76 222 0.0 0.0 0.00 0.00 0.00 86 1014.9
20260510031732 75 233 0.0 0.0 0.00 0.00 0.00 86 1014.6
20260510031228 75 143 0.0 0.0 0.00 0.00 0.00 87 1014.5
20260510030727 75 143 0.0 0.0 0.00 0.00 0.00 87 1014.8
20260510030225 75 143 0.0 0.0 0.00 0.00 0.00 87 1014.8
20260510025722 75 143 0.0 0.0 0.00 0.00 0.00 87 1014.6
20260510025219 75 143 0.0 0.0 0.00 0.00 0.00 87 1014.6
20260510024716 75 143 0.0 0.0 0.00 0.00 0.00 87 1014.5
20260510024212 75 144 0.0 0.0 0.00 0.00 0.00 86 1014.5
20260510023708 75 133 0.0 0.0 0.00 0.00 0.00 86 1014.3
20260510023206 75 123 0.0 0.0 0.00 0.00 0.00 86 1014.5
20260510022702 75 160 0.0 0.0 0.00 0.00 0.00 86 1014.1
20260510022156 75 123 0.0 0.0 0.00 0.00 0.00 86 1014.2
20260510021652 75 122 0.0 0.0 0.00 0.00 0.00 86 1014.2
20260510021150 75 140 0.0 0.0 0.00 0.00 0.00 86 1014.1
20260510020650 75 126 0.0 0.0 0.00 0.00 0.00 86 1014.3
20260510020145 76 89 0.0 0.0 0.00 0.00 0.00 85 1014.0
20260510015641 76 89 0.0 0.0 0.00 0.00 0.00 85 1014.1
20260510015138 76 82 0.0 0.0 0.00 0.00 0.00 85 1014.1
20260510014638 76 89 0.0 0.0 0.00 0.00 0.00 85 1014.0
20260510014136 76 106 0.0 0.0 0.00 0.00 0.00 84 1014.0
20260510013637 76 63 0.0 0.0 0.00 0.00 0.00 84 1014.1
20260510013132 76 75 0.0 0.0 0.00 0.00 0.00 84 1013.9
20260510012632 76 67 0.0 0.0 0.00 0.00 0.00 84 1013.8
20260510012129 76 71 0.0 0.0 0.00 0.00 0.00 84 1013.8
20260510011629 77 47 0.0 0.0 0.00 0.00 0.00 83 1013.8
20260510011125 77 41 0.0 0.0 0.00 0.00 0.00 83 1013.7
20260510010621 77 69 0.0 0.0 0.00 0.00 0.00 82 1013.7
20260510010118 77 333 0.0 0.9 0.00 0.00 0.00 83 1013.8
20260510005613 77 90 1.7 2.6 0.00 0.00 0.00 82 1013.5
20260510005111 77 34 0.0 0.0 0.00 0.00 0.00 83 1013.6
20260510004609 77 4 0.9 1.7 0.00 0.00 0.00 83 1013.5
20260510004107 77 71 1.7 2.6 0.00 0.00 0.00 83 1013.5
20260510003604 77 77 2.6 2.6 0.00 0.00 0.00 83 1013.1
20260510003059 77 84 0.0 0.0 0.00 0.00 0.00 83 1013.0
20260510002554 77 20 0.9 2.6 0.00 0.00 0.00 83 1013.0
20260510002051 78 86 1.7 2.6 0.00 0.00 0.00 83 1013.0
20260510001548 78 356 0.9 1.7 0.00 0.00 0.00 83 1013.1
20260510001048 78 11 3.5 5.2 0.00 0.00 0.00 83 1013.1
20260510000542 78 349 3.5 4.3 0.00 0.00 0.00 83 1012.7
20260510000039 78 359 3.5 4.3 0.00 0.00 0.00 83 1013.0
20260509235536 78 88 2.6 4.3 0.00 0.00 0.00 83 1012.7
20260509235033 79 358 6.1 7.0 0.00 0.00 0.00 83 1012.6
20260509234529 79 47 5.2 7.0 0.00 0.00 0.00 82 1012.8
20260509234027 80 344 1.7 2.6 0.00 0.00 0.00 82 1012.4
20260509233524 82 92 1.7 4.3 0.00 0.00 0.00 80 1012.2
20260509233021 82 342 3.5 4.3 0.00 0.00 0.00 74 1012.2
20260509232518 83 321 5.2 6.1 0.00 0.00 0.00 74 1012.1
20260509232014 83 28 4.3 6.1 0.00 0.00 0.00 74 1012.2
20260509231511 83 333 7.8 8.7 0.00 0.00 0.00 73 1012.1
20260509231008 84 350 7.0 8.7 0.00 0.00 0.00 73 1012.2
20260509230505 83 358 2.6 4.3 0.00 0.00 0.00 73 1012.1
20260509230002 84 321 4.3 6.1 0.00 0.00 0.00 73 1012.1
20260509225458 84 30 3.5 5.2 0.00 0.00 0.00 72 1012.1
20260509224953 84 28 6.1 7.8 0.00 0.00 0.00 72 1011.9
20260509224449 84 261 5.2 6.1 0.00 0.00 0.00 72 1011.9
20260509223946 85 55 2.6 2.6 0.00 0.00 0.00 70 1011.8
20260509223443 85 339 5.2 7.0 0.00 0.00 0.00 69 1011.9
20260509222940 85 7 5.2 6.1 0.00 0.00 0.00 69 1011.5
20260509222435 85 20 4.3 5.2 0.00 0.00 0.00 68 1011.7
20260509221931 86 336 6.1 7.0 0.00 0.00 0.00 68 1011.6
20260509221428 86 348 7.8 8.7 0.00 0.00 0.00 67 1011.4
20260509220924 86 51 1.7 2.6 0.00 0.00 0.00 67 1011.6
20260509220420 87 294 5.2 6.1 0.00 0.00 0.00 63 1011.6
20260509215916 88 348 5.2 7.8 0.00 0.00 0.00 62 1011.4
20260509215412 89 309 7.8 8.7 0.00 0.00 0.00 59 1011.3
20260509214910 89 294 3.5 5.2 0.00 0.00 0.00 58 1011.1
20260509214407 89 304 5.2 6.1 0.00 0.00 0.00 58 1011.2
20260509213904 89 14 3.5 5.2 0.00 0.00 0.00 58 1011.4
20260509213359 90 279 4.3 5.2 0.00 0.00 0.00 58 1011.2
20260509212857 91 280 6.1 7.8 0.00 0.00 0.00 56 1011.1
20260509212354 91 263 3.5 5.2 0.00 0.00 0.00 56 1010.9
20260509211850 91 273 1.7 1.7 0.00 0.00 0.00 56 1010.7
20260509211346 92 323 5.2 6.1 0.00 0.00 0.00 57 1010.9
20260509210843 91 336 2.6 4.3 0.00 0.00 0.00 57 1011.1
20260509210341 90 250 2.6 2.6 0.00 0.00 0.00 58 1010.6
20260509205840 90 283 3.5 4.3 0.00 0.00 0.00 59 1010.9
20260509205335 90 244 6.1 9.6 0.00 0.00 0.00 59 1010.9
20260509204832 90 313 6.1 7.8 0.00 0.00 0.00 60 1011.1
20260509204328 90 334 4.3 5.2 0.00 0.00 0.00 61 1011.0
20260509203824 91 294 5.2 6.1 0.00 0.00 0.00 59 1010.8
20260509203321 90 312 1.7 2.6 0.00 0.00 0.00 58 1011.1
20260509202817 91 298 2.6 4.3 0.00 0.00 0.00 57 1010.9
20260509202314 91 265 1.7 1.7 0.00 0.00 0.00 60 1010.8
20260509201813 91 320 2.6 2.6 0.00 0.00 0.00 61 1011.2
20260509201310 90 8 0.0 0.0 0.00 0.00 0.00 62 1010.9
20260509200806 89 267 2.6 2.6 0.00 0.00 0.00 66 1011.0
20260509200302 87 229 1.7 1.7 0.00 0.00 0.00 69 1011.2
20260509195758 87 187 1.7 1.7 0.00 0.00 0.00 73 1011.3
20260509195253 86 227 0.0 0.0 0.00 0.00 0.00 72 1011.2
20260509194748 85 228 1.7 1.7 0.00 0.00 0.00 73 1011.1
20260509194244 84 173 0.0 0.9 0.00 0.00 0.00 78 1011.1